Theta_e
314 314 314 315 314 314 315 315 316 316 316 319 323 324 324 323 322 321 320 319 321 320 318 316 317 320 321 327 329 328 328 331 329 327 326 324 323 323 322 324 324 323 322 324 329
314 314 314 315 314 314 314 315 315 315 315 316 318 320 322 321 320 321 320 320 323 322 320 319 319 319 319 327 329 329 330 331 326 324 324 324 323 324 325 325 325 323 323 324 328
314 314 315 314 313 314 314 314 315 315 314 315 315 318 318 319 319 318 319 322 324 324 321 321 321 319 324 321 328 330 334 328 326 325 324 323 324 324 324 325 325 325 323 325 324
315 314 314 314 313 314 313 313 314 314 314 314 314 314 316 318 320 319 317 318 321 324 323 321 321 319 325 328 325 331 330 330 328 327 326 325 324 324 323 323 323 322 322 323 323
315 314 314 314 314 313 311 311 313 313 313 314 315 314 315 317 317 316 315 315 317 320 322 322 321 319 320 322 323 327 328 328 328 327 326 324 324 323 324 322 322 321 322 321 322
316 315 314 314 313 312 312 311 310 312 311 311 313 314 314 315 312 313 315 315 315 319 320 321 321 319 319 319 320 323 324 326 328 329 327 325 324 323 323 321 321 321 321 321 321
316 315 313 312 312 312 313 313 312 312 311 309 312 314 314 313 312 312 313 315 315 314 313 317 320 322 321 320 320 323 326 323 324 328 329 326 326 325 322 321 322 322 320 321 318
315 315 312 310 314 311 313 312 312 312 310 311 309 313 313 311 311 311 312 312 312 312 312 312 312 317 320 320 320 323 326 327 324 325 328 327 331 325 322 322 321 321 318 317 319
314 314 313 309 311 312 312 310 308 308 313 311 310 312 312 310 312 312 312 312 312 311 311 312 312 318 319 321 321 323 325 326 326 324 327 327 329 325 322 322 323 319 317 316 318
316 314 314 313 310 313 311 309 308 310 312 313 312 312 311 311 312 311 312 312 311 311 313 313 312 315 317 321 323 320 324 324 326 324 325 328 329 325 322 322 322 319 316 315 317
316 315 313 315 310 312 311 310 309 311 312 313 312 310 311 311 311 311 311 311 312 312 314 313 314 316 316 317 317 318 320 322 323 324 327 327 328 327 325 323 320 316 315 316 317
315 315 312 314 310 311 312 309 311 310 313 312 312 311 311 311 312 311 311 312 312 315 312 313 315 313 315 317 319 319 320 321 321 323 325 327 328 326 325 323 321 320 318 316 316
315 315 312 313 310 311 311 310 311 311 313 312 312 313 313 312 313 313 312 311 312 313 313 314 313 313 314 315 318 319 320 319 321 323 325 326 329 326 323 323 321 319 319 318 317
315 315 312 312 311 311 311 310 311 311 313 313 311 312 312 312 313 312 312 312 313 314 313 313 311 312 314 315 314 317 316 318 319 324 330 327 334 326 324 321 319 317 316 318 316
315 315 312 309 310 310 311 311 311 310 314 311 312 310 311 312 312 312 312 313 314 313 313 313 312 312 313 314 313 315 315 317 318 322 324 328 334 325 321 324 323 320 314 316 316
315 315 312 308 311 312 311 311 308 313 312 314 311 312 312 313 313 312 311 312 313 315 313 312 311 312 312 311 312 314 315 316 320 323 328 326 332 326 324 323 322 320 316 316 315
315 315 312 311 310 311 310 308 312 314 311 316 314 312 311 314 314 313 314 315 316 315 315 313 313 312 314 316 313 315 316 316 323 324 326 326 330 329 321 318 322 316 317 316 315
315 315 312 311 310 310 308 311 313 312 314 313 313 311 314 312 314 314 314 315 314 312 314 312 310 313 312 314 316 316 314 317 319 325 326 328 334 326 323 316 318 317 317 315 316
315 316 314 311 310 309 310 312 311 312 315 316 314 316 316 314 312 312 312 316 312 311 311 312 313 314 312 312 313 315 316 314 324 325 329 329 322 317 316 317 318 317 317 316 315
316 316 314 311 310 309 312 314 311 314 314 313 317 315 315 313 313 315 312 311 312 310 310 313 315 312 312 314 313 317 317 319 320 330 333 327 322 321 318 317 319 318 317 316 315
314 316 314 310 310 312 311 314 313 313 313 315 316 317 316 313 313 313 311 311 311 312 310 312 314 316 312 317 317 319 319 321 322 322 331 328 325 317 317 317 319 318 316 315 315
313 317 313 310 314 311 313 313 312 313 313 313 313 316 317 315 314 312 312 311 312 312 314 312 314 316 317 320 318 318 320 320 322 330 328 321 320 314 314 314 316 317 316 315 314
314 316 312 310 314 313 312 312 312 313 313 314 315 314 314 316 316 313 312 314 313 313 314 313 315 316 325 322 322 323 322 324 322 327 329 322 319 315 313 313 312 316 316 315 314
314 316 315 314 313 315 314 313 313 311 312 314 315 314 315 316 313 315 314 315 313 313 314 312 317 320 327 327 326 326 324 321 323 330 327 323 319 318 315 315 313 316 316 315 314
313 316 313 315 314 315 314 314 314 313 312 313 315 315 315 315 314 314 315 314 314 316 316 316 319 320 319 321 325 327 325 324 328 327 328 319 320 317 315 314 313 316 316 315 315
313 314 313 313 313 314 314 315 315 314 315 317 315 316 315 316 314 316 317 316 317 317 314 315 317 323 326 326 325 329 328 326 326 325 325 324 325 316 314 312 313 315 317 316 315
311 311 314 317 315 315 315 315 315 312 313 315 315 316 316 318 316 316 316 315 318 317 315 317 320 327 323 326 327 330 327 326 326 324 324 326 323 315 315 315 314 314 317 316 314
Wind_Speed
7 5 4 5 6 6 7 6 6 6 6 5 3 10 10 9 8 6 7 8 3 4 7 10 9 11 7 5 5 1 3 8 10 9 11 7 4 2 3 3 2 4 3 7 18
8 6 5 5 6 6 6 6 6 6 4 4 2 2 5 6 8 12 16 14 10 9 8 6 7 10 3 3 4 5 5 9 4 9 7 13 5 3 2 3 3 5 8 9 14
9 7 7 6 5 4 5 5 4 5 5 4 3 2 2 3 4 8 12 21 19 11 7 7 13 5 3 6 5 5 10 5 5 13 12 8 4 2 2 3 4 6 4 2 8
9 9 7 6 5 4 4 4 3 3 4 3 3 2 3 5 7 3 1 4 9 19 11 4 5 2 2 4 7 10 12 13 13 17 14 6 5 4 5 7 4 8 7 4 8
10 10 9 8 7 5 5 4 3 3 1 3 3 2 4 5 7 3 6 7 5 11 12 8 5 3 4 5 6 14 14 14 16 18 19 11 11 9 6 7 7 10 10 11 9
13 11 11 9 8 7 5 5 4 4 3 3 3 3 2 12 9 16 7 4 4 9 12 12 7 7 6 6 11 9 11 16 19 17 12 16 9 5 6 7 7 11 11 10 10
15 13 12 11 9 7 5 6 4 4 4 4 3 4 5 12 7 3 13 20 12 8 3 10 17 12 5 5 7 7 13 15 17 14 15 12 17 15 10 7 10 16 10 11 5
14 15 13 13 11 8 7 5 5 6 5 4 3 3 6 8 21 23 7 7 8 8 11 16 13 4 6 3 6 5 6 14 7 12 9 12 21 9 8 7 12 14 10 7 8
15 15 14 12 12 10 7 6 6 7 7 5 4 4 7 6 16 21 18 9 8 11 14 13 8 4 2 5 4 4 8 7 10 7 7 9 15 11 9 10 16 10 10 9 7
17 16 16 13 13 11 9 6 6 6 6 6 7 3 6 5 6 14 14 18 6 3 6 5 4 4 0 5 12 13 7 6 7 6 10 14 18 11 9 11 15 11 10 9 8
19 17 17 16 12 11 10 2 2 1 5 8 8 5 3 1 8 10 17 11 8 5 7 6 7 9 12 14 8 5 8 11 6 9 10 18 18 20 15 15 10 9 8 7 8
19 18 16 18 13 12 12 3 2 3 5 16 16 16 19 6 4 6 14 8 10 14 7 6 18 12 8 10 10 13 14 20 15 14 11 14 19 23 17 13 12 10 9 11 8
19 18 17 16 13 13 16 11 3 2 5 6 15 11 14 12 13 8 13 11 11 11 13 17 3 20 14 12 13 15 16 16 15 14 16 10 16 23 15 19 14 11 8 17 18
19 18 19 16 10 13 8 15 15 3 4 3 5 4 5 4 5 19 22 12 9 17 15 14 20 13 15 18 12 16 13 15 17 11 10 3 8 16 17 14 9 12 9 17 12
20 20 24 25 9 11 8 13 14 5 5 7 5 2 1 7 7 7 18 12 17 14 10 8 10 19 20 20 12 18 5 11 12 14 14 19 8 7 8 20 19 17 11 17 17
23 24 27 24 7 12 17 19 8 3 8 6 5 4 3 7 3 1 4 10 2 11 14 15 2 5 14 14 11 2 1 12 8 9 12 20 14 6 8 20 20 13 16 17 15
26 28 32 23 9 23 26 5 3 4 2 5 4 6 8 6 7 7 4 11 6 7 6 6 15 2 3 3 2 5 4 3 6 6 13 10 13 15 5 11 13 16 20 18 17
27 30 34 21 20 30 15 2 6 4 4 4 3 7 6 5 6 8 3 8 16 8 2 4 5 13 12 19 9 13 15 7 7 8 8 10 8 7 19 8 11 19 23 20 18
26 29 19 22 31 32 6 4 7 6 4 5 3 4 5 8 7 9 11 4 5 17 7 5 6 2 8 13 20 10 13 25 6 5 5 5 8 4 2 8 17 18 20 19 17
16 13 10 35 35 21 4 5 4 4 6 4 7 9 6 7 9 9 8 7 7 15 14 2 7 7 14 13 16 13 15 10 5 5 5 9 5 5 6 10 15 18 19 16 16
10 4 17 42 28 5 4 5 5 6 8 8 6 5 7 4 9 4 5 6 13 16 19 8 6 4 1 7 15 9 4 8 3 7 4 5 5 5 12 15 17 17 17 18 18
4 5 23 37 5 3 4 5 4 7 11 9 5 7 5 8 7 5 10 9 10 12 16 10 3 5 9 8 12 10 12 13 7 10 5 4 3 3 9 9 13 14 15 15 16
5 3 24 19 5 4 2 3 6 7 8 8 9 11 12 6 7 9 6 9 9 9 15 9 4 3 4 3 9 10 12 8 9 13 3 5 4 2 7 8 8 14 14 14 15
3 4 3 4 2 6 5 4 4 11 14 13 7 12 10 7 13 4 9 7 18 15 16 12 5 7 4 3 6 7 14 14 13 3 1 1 6 2 5 8 9 14 16 16 17
2 3 3 5 5 6 10 7 5 4 9 9 4 9 9 5 12 9 9 7 12 17 13 7 5 8 13 16 8 8 12 19 15 6 4 4 5 8 10 10 10 13 14 15 16
4 3 2 5 7 12 9 8 9 6 5 6 9 12 13 8 6 6 7 5 6 11 5 9 5 10 10 7 14 9 14 9 6 4 2 3 3 2 4 7 7 14 17 17 15
3 2 2 5 7 7 6 12 13 8 9 16 14 9 7 8 11 3 2 7 3 7 9 8 4 5 3 5 7 2 10 5 4 2 5 2 5 5 6 8 9 10 15 15 14
Wind_Direction
281 293 306 312 323 336 334 330 333 326 322 342 257 234 239 231 228 240 245 219 238 270 294 311 302 297 283 236 263 351 232 230 225 231 252 290 262 233 145 107 353 272 198 212 167
281 287 294 300 316 327 335 330 327 326 317 307 335 266 234 225 226 231 248 246 247 276 295 317 308 324 242 249 235 189 211 233 213 228 240 263 237 245 95 17 306 322 8 149 166
275 282 286 293 300 311 320 324 321 319 318 296 273 253 229 210 261 236 270 243 242 248 276 295 297 311 243 226 220 249 240 263 252 261 266 272 263 204 80 285 225 267 304 216 186
264 267 269 277 281 290 305 311 316 316 327 287 284 253 212 186 236 153 136 198 221 224 236 277 287 280 307 260 252 256 250 246 260 272 274 261 288 245 192 219 236 277 265 256 291
255 252 255 262 273 273 287 292 300 318 315 291 270 230 154 226 248 191 93 66 81 192 202 215 266 244 231 254 314 248 251 251 244 242 259 263 250 245 239 253 287 288 287 285 276
250 249 246 249 256 261 272 280 277 281 296 272 271 236 218 242 258 240 257 262 124 160 200 218 233 235 269 240 256 286 272 266 254 261 262 265 249 199 251 233 255 264 256 260 265
247 246 242 240 245 248 265 275 280 277 278 272 263 215 237 229 233 16 239 240 239 262 300 237 237 241 315 305 326 275 277 266 254 252 252 277 265 241 238 223 243 253 248 261 202
246 245 240 234 235 240 248 259 260 266 264 261 247 208 247 245 256 258 263 255 245 249 258 268 293 288 224 277 320 284 268 254 265 252 251 234 260 258 246 227 249 252 243 188 177
244 240 238 234 229 231 231 254 277 268 247 221 225 181 263 270 231 242 229 239 226 224 228 243 266 237 260 210 279 252 269 282 269 239 243 242 266 248 244 241 256 261 246 186 156
244 233 233 228 225 224 215 241 292 275 228 205 250 248 263 239 209 228 222 228 236 319 198 203 223 218 173 189 226 231 231 243 242 239 243 260 262 265 250 236 238 241 235 177 166
242 236 225 222 221 205 204 226 53 229 215 206 190 214 262 251 192 204 206 213 230 238 217 219 214 210 221 227 227 289 280 280 286 244 225 238 245 256 251 248 244 236 243 170 156
239 226 225 208 207 197 200 179 221 99 268 231 255 236 249 272 278 211 181 182 201 213 210 255 240 211 214 228 231 245 268 271 288 272 271 252 239 241 239 230 228 222 231 151 155
233 221 201 198 188 186 197 198 201 283 268 207 227 240 233 232 229 217 178 201 200 204 202 221 213 198 215 222 222 231 233 251 258 299 291 279 272 252 243 232 222 220 213 164 164
227 213 191 177 177 186 199 223 234 201 270 201 220 266 196 161 260 214 205 188 215 208 205 237 235 239 216 233 213 239 239 257 265 278 260 341 269 250 230 229 208 219 169 169 164
222 204 188 180 157 160 161 195 191 153 298 153 165 171 101 184 136 216 220 213 216 198 184 214 180 208 222 229 211 252 246 280 273 253 279 272 256 262 198 229 230 221 167 167 162
216 199 189 183 152 166 137 137 136 124 248 168 149 178 187 195 223 317 192 210 206 233 244 241 234 206 222 229 204 241 342 282 274 269 253 244 246 245 207 218 225 206 161 159 152
207 197 188 180 178 150 135 128 117 205 167 174 185 184 206 200 213 206 195 204 197 204 207 192 242 189 152 215 211 158 146 253 220 218 242 201 235 254 219 231 187 160 162 154 147
206 196 189 178 177 154 133 101 201 216 201 124 162 199 207 186 217 213 217 214 217 225 92 172 265 187 190 209 185 194 192 208 200 210 250 174 219 234 246 264 147 153 151 146 145
203 189 177 176 171 161 143 194 206 195 146 150 118 209 199 211 233 212 227 220 233 203 186 182 250 203 212 198 193 194 206 210 303 283 195 204 235 311 60 106 128 138 143 150 147
185 173 176 176 170 157 177 219 218 141 130 125 209 193 215 197 195 190 187 207 206 193 197 162 278 222 266 211 195 228 179 179 179 257 165 207 198 197 177 149 143 148 151 150 148
161 164 165 170 156 178 199 215 209 192 167 189 209 221 223 201 204 207 224 271 203 193 188 181 218 201 334 216 183 187 195 207 239 235 232 157 233 209 175 162 158 162 161 156 154
144 167 164 152 160 187 189 191 141 191 198 221 247 230 232 206 208 233 218 211 176 202 177 194 212 257 244 246 192 182 182 194 191 222 205 126 293 1 160 164 158 161 158 153 151
141 110 165 163 173 177 186 169 215 199 205 202 216 215 206 215 215 206 238 225 144 156 165 158 217 274 235 240 166 182 205 213 229 273 234 113 212 6 94 141 152 147 151 145 143
135 143 145 198 78 179 172 197 217 217 234 214 218 223 237 229 226 202 244 228 168 174 154 151 215 228 258 18 158 189 188 214 236 244 282 85 117 140 148 147 137 151 155 153 155
124 158 172 158 191 177 177 186 178 233 207 219 258 229 233 237 210 212 202 257 169 164 146 183 278 226 241 244 227 195 207 202 219 251 74 181 124 191 185 176 164 151 144 146 156
131 161 159 154 178 201 188 194 197 223 212 213 218 206 218 235 237 181 172 177 190 169 146 168 274 310 355 130 194 186 230 201 206 231 218 124 323 207 107 111 130 156 157 162 163
112 42 183 147 170 173 208 219 203 194 243 242 224 232 259 246 251 152 349 191 133 161 179 181 246 336 354 164 140 315 232 172 261 352 174 178 206 101 144 170 167 161 163 160 161